TimePST,TemperatureF,Dew PointF,Humidity,Sea Level PressureIn,VisibilityMPH,Wind Direction,Wind SpeedMPH,Gust SpeedMPH,PrecipitationIn,Events,Conditions,WindDirDegrees,DateUTC
12:53 AM,43.0,37.0,80,29.95,10.0,Calm,Calm,-,N/A,,Clear,0,2013-02-09 08:53:00
1:53 AM,42.1,37.0,82,29.96,10.0,ESE,4.6,-,N/A,,Partly Cloudy,110,2013-02-09 09:53:00
2:53 AM,41.0,37.0,86,29.96,10.0,East,3.5,-,N/A,,Partly Cloudy,100,2013-02-09 10:53:00
3:53 AM,42.1,37.0,82,29.96,10.0,South,3.5,-,N/A,,Partly Cloudy,170,2013-02-09 11:53:00
4:53 AM,39.9,37.0,89,29.96,10.0,ESE,3.5,-,N/A,,Partly Cloudy,120,2013-02-09 12:53:00
5:53 AM,41.0,37.0,86,29.98,10.0,Calm,Calm,-,N/A,,Partly Cloudy,0,2013-02-09 13:53:00
6:53 AM,41.0,36.0,82,30.01,10.0,East,4.6,-,N/A,,Scattered Clouds,100,2013-02-09 14:53:00
7:53 AM,45.0,37.0,74,30.03,10.0,ENE,5.8,-,N/A,,Scattered Clouds,60,2013-02-09 15:53:00
8:53 AM,48.0,37.9,68,30.04,10.0,ESE,5.8,-,N/A,,Scattered Clouds,120,2013-02-09 16:53:00
9:53 AM,51.1,39.0,63,30.06,10.0,ESE,8.1,-,N/A,,Scattered Clouds,120,2013-02-09 17:53:00
10:53 AM,53.1,37.0,55,30.07,10.0,SE,5.8,-,N/A,,Scattered Clouds,140,2013-02-09 18:53:00
11:53 AM,55.0,37.0,51,30.06,10.0,South,5.8,-,N/A,,Partly Cloudy,180,2013-02-09 19:53:00
12:53 PM,55.0,39.0,55,30.04,10.0,SW,9.2,-,N/A,,Partly Cloudy,230,2013-02-09 20:53:00
1:53 PM,55.0,37.9,53,30.04,10.0,WSW,10.4,-,N/A,,Scattered Clouds,240,2013-02-09 21:53:00
2:53 PM,55.9,34.0,44,30.04,10.0,West,5.8,-,N/A,,Scattered Clouds,270,2013-02-09 22:53:00
3:53 PM,55.0,37.0,51,30.04,10.0,West,10.4,-,N/A,,Scattered Clouds,260,2013-02-09 23:53:00
4:53 PM,54.0,37.9,55,30.04,10.0,WSW,8.1,-,N/A,,Scattered Clouds,250,2013-02-10 00:53:00
5:53 PM,53.1,41.0,64,30.04,10.0,WSW,5.8,-,N/A,,Scattered Clouds,240,2013-02-10 01:53:00
6:53 PM,54.0,39.9,59,30.06,9.0,SW,4.6,-,N/A,,Scattered Clouds,220,2013-02-10 02:53:00
7:53 PM,53.1,39.0,59,30.07,10.0,WSW,4.6,-,N/A,,Partly Cloudy,240,2013-02-10 03:53:00
8:53 PM,52.0,41.0,66,30.09,10.0,SSE,4.6,-,N/A,,Scattered Clouds,150,2013-02-10 04:53:00
9:53 PM,50.0,39.9,68,30.09,10.0,ESE,4.6,-,N/A,,Scattered Clouds,110,2013-02-10 05:53:00
10:53 PM,50.0,39.9,68,30.10,10.0,ESE,4.6,-,N/A,,Scattered Clouds,110,2013-02-10 06:53:00
11:53 PM,46.9,39.9,77,30.11,10.0,East,5.8,-,N/A,,Scattered Clouds,90,2013-02-10 07:53:00